Location: Aalen
(48.8330°N, 10.1000°E)
Time: 19:25:29
(UTC+02:00)

UNISAT 6 - Pass Details

Date: 04 April 2023
Orbit: 599 x 680 km, 97.7° (Epoch: 04 June)

Event Time Altitude Azimuth Distance (km) Brightness Sun altitude
Rises 05:11:09 0° 140° (SE) 2,939 ? -16.4°
Reaches altitude 10° 05:13:28 10° 131° (SE) 2,048 ? -16.1°
Maximum altitude 05:17:31 35° 67° (ENE) 1,075 ? -15.5°
Drops below altitude 10° 05:21:40 10° 2° (N) 2,105 ? -14.9°
Sets 05:24:04 0° 354° (N) 3,034 ? -14.6°
